Weather History for Minneapolis Crystal, MN

Change the Weather History Date:

Monday, November 26, 2012

  Actual Average Record
Temperature  
Mean Temperature 14 °F -  
Max Temperature 19 °F 36 °F 57 °F (1998)
Min Temperature 8 °F 22 °F 8 °F (1991)
Degree Days  
Heating Degree Days 52    
Moisture  
Dew Point 5 °F    
Average Humidity 68    
Maximum Humidity 80    
Minimum Humidity 54    
Precipitation  
Precipitation 0.00 in - - ()
Sea Level Pressure  
Sea Level Pressure 30.36 in    
Wind  
Wind Speed 9 mph (WNW)    
Max Wind Speed 13 mph    
Max Gust Speed 21 mph    
Visibility 10 miles    
Events      
Averages and records for this station are not official NWS values.
T = Trace of Precipitation, MM = Missing Value Source: NWS Daily Summary

Daily Weather History Graph

Daily Weather History Graph

Search for Another Location

Airport:

Trip Planner

Search our weather history database for the weather conditions in past years. The results will help you decide how hot, cold, wet, or windy it might be!

Date:

Astronomy

Nov. 26, 2012 Rise Set
Actual Time 7:26 AM CST 4:35 PM CST
Civil Twilight 6:53 AM CST 5:08 PM CST
Nautical Twilight 6:17 AM CST 5:44 PM CST
Astronomical Twilight 5:41 AM CST 6:19 PM CST
Moon 3:30 PM CST (11/26) 5:34 AM CST (11/26)
Length of Visible Light 10h 14m
Length of Day
9h 08m
Waxing Gibbous, 97% of the Moon is Illuminated
Nov 26
Waxing Gibbous
Nov 28
Full
Dec 6
Last Quarter
Dec 13
New
Dec 19
First Quarter

Hourly Weather History & Observations

Time (CST) Temp. Windchill Dew Point Humidity Pressure Visibility Wind Dir Wind Speed Gust Speed Precip Events Conditions
12:53 AM 19.0 °F 6.1 °F 8.1 °F 62% 30.22 in 10.0 mi NW 12.7 mph 20.7 mph N/A   Clear
1:53 AM 16.0 °F 2.3 °F 7.0 °F 68% 30.24 in 10.0 mi NW 12.7 mph - N/A   Clear
2:43 AM 14.0 °F 2.0 °F 6.8 °F 73% 30.22 in 10.0 mi NW 9.2 mph 18.4 mph N/A   Mostly Cloudy
2:53 AM 14.0 °F 2.0 °F 6.1 °F 71% 30.27 in 10.0 mi NW 9.2 mph - N/A   Mostly Cloudy
3:09 AM 12.2 °F -0.2 °F 6.8 °F 79% 30.23 in 10.0 mi WNW 9.2 mph - N/A   Partly Cloudy
3:53 AM 12.9 °F -0.9 °F 5.0 °F 71% 30.30 in 10.0 mi NW 11.5 mph - N/A   Scattered Clouds
4:04 AM 12.2 °F -2.5 °F 5.0 °F 73% 30.25 in 10.0 mi NW 12.7 mph - N/A   Mostly Cloudy
4:53 AM 12.0 °F 0.5 °F 5.0 °F 73% 30.31 in 10.0 mi NW 8.1 mph - N/A   Overcast
5:53 AM 10.0 °F -2.9 °F 3.9 °F 76% 30.34 in 10.0 mi NW 9.2 mph - N/A   Mostly Cloudy
6:17 AM 10.4 °F -2.4 °F 3.2 °F 73% 30.30 in 10.0 mi NW 9.2 mph - N/A   Scattered Clouds
6:53 AM 9.0 °F -4.2 °F 3.0 °F 77% 30.37 in 10.0 mi NW 9.2 mph - N/A   Clear
7:53 AM 8.1 °F -5.3 °F 3.0 °F 80% 30.40 in 10.0 mi NW 9.2 mph - N/A   Clear
8:53 AM 10.0 °F -3.7 °F 3.0 °F 73% 30.42 in 10.0 mi NNW 10.4 mph - N/A   Clear
9:53 AM 12.0 °F 0.5 °F 3.9 °F 70% 30.44 in 10.0 mi NNW 8.1 mph - N/A   Clear
10:53 AM 14.0 °F 2.9 °F 5.0 °F 67% 30.45 in 10.0 mi NW 8.1 mph - N/A   Clear
11:53 AM 16.0 °F 3.6 °F 6.1 °F 65% 30.46 in 10.0 mi NW 10.4 mph - N/A   Clear
12:53 PM 17.1 °F 5.8 °F 3.9 °F 56% 30.45 in 10.0 mi WNW 9.2 mph - N/A   Clear
1:53 PM 18.0 °F 8.7 °F 3.9 °F 54% 30.43 in 10.0 mi WNW 6.9 mph - N/A   Clear
2:53 PM 19.0 °F 9.0 °F 5.0 °F 54% 30.43 in 10.0 mi NW 8.1 mph - N/A   Clear
3:53 PM 19.0 °F 9.0 °F 5.0 °F 54% 30.43 in 10.0 mi NW 8.1 mph - N/A   Clear
4:53 PM 17.1 °F 8.7 °F 6.1 °F 62% 30.43 in 10.0 mi West 5.8 mph - N/A   Clear
5:53 PM 17.1 °F - 6.1 °F 62% 30.44 in 10.0 mi Calm Calm - N/A   Clear
6:53 PM 15.1 °F - 6.1 °F 68% 30.43 in 10.0 mi Calm Calm - N/A   Clear
7:53 PM 14.0 °F 8.2 °F 6.1 °F 71% 30.41 in 10.0 mi South 3.5 mph - N/A   Clear
8:53 PM 15.1 °F 9.4 °F 6.1 °F 68% 30.40 in 10.0 mi SW 3.5 mph - N/A   Clear
9:53 PM 12.9 °F 5.2 °F 6.1 °F 74% 30.39 in 10.0 mi SSW 4.6 mph - N/A   Clear
10:53 PM 14.0 °F 5.1 °F 7.0 °F 74% 30.38 in 10.0 mi South 5.8 mph - N/A   Clear
11:53 PM 18.0 °F 8.7 °F 8.1 °F 65% 30.37 in 10.0 mi SSW 6.9 mph - N/A   Overcast